Location: Frydek-Mistek
(49.6830°N, 18.3330°E)
Time: 20:17:36
(UTC+02:00)

ISS - Visible Passes

Search period start: 14 July 2024 00:00
Search period end: 24 July 2024 00:00
Orbit: 410 x 424 km, 51.6° (Epoch: 14 July)

Date Brightness Start Highest point End Pass type
(mag) Time Alt. Az. Time Alt. Az. Time Alt. Az.
14 Jul -3.6 01:29:10 10° WNW 01:32:01 53° WSW 01:32:01 53° WSW visible
14 Jul -3.8 21:27:10 10° WSW 21:30:29 82° SSE 21:33:48 10° ENE visible
14 Jul -3.2 23:04:05 10° W 23:07:22 59° N 23:10:40 10° E visible
15 Jul -4.0 00:40:55 10° WNW 00:44:16 80° SSW 00:44:30 72° SE visible
15 Jul -3.2 22:15:47 10° W 22:19:04 61° N 22:22:22 10° ENE visible
15 Jul -3.8 23:52:40 10° WNW 23:56:00 80° NNE 23:57:19 34° E visible
16 Jul -1.4 01:29:36 10° W 01:30:11 14° W 01:30:11 14° W visible
16 Jul -3.4 21:27:26 10° W 21:30:45 68° N 21:34:03 10° ENE visible
16 Jul -3.5 23:04:23 10° WNW 23:07:42 67° N 23:10:15 16° E visible
17 Jul -2.4 00:41:12 10° WNW 00:43:08 28° W 00:43:08 28° W visible
17 Jul -3.3 22:16:03 10° WNW 22:19:21 61° N 22:22:38 10° E visible
17 Jul -3.8 23:52:52 10° WNW 23:56:09 61° SSW 23:56:09 61° SSW visible
18 Jul -3.2 21:27:41 10° W 21:30:57 59° N 21:34:15 10° E visible
18 Jul -3.9 23:04:31 10° WNW 23:07:50 83° SSW 23:09:13 33° ESE visible
19 Jul -1.2 00:41:40 10° W 00:42:05 12° W 00:42:05 12° W visible
19 Jul -3.7 22:16:09 10° WNW 22:19:29 78° NNE 22:22:18 14° E visible
19 Jul -2.4 23:53:04 10° W 23:55:10 26° WSW 23:55:10 26° WSW visible
20 Jul -3.4 21:27:45 10° WNW 21:31:03 66° N 21:34:22 10° E visible
20 Jul -3.4 23:04:34 10° WNW 23:07:45 45° SSW 23:08:17 40° S visible
21 Jul -3.7 22:16:06 10° WNW 22:19:24 64° SSW 22:21:24 21° SE visible
21 Jul -1.3 23:53:42 10° WSW 23:54:17 12° WSW 23:54:17 12° WSW visible
22 Jul -3.8 21:27:39 10° WNW 21:30:59 86° SSW 21:34:18 10° ESE visible
22 Jul -2.2 23:04:46 10° W 23:07:25 22° SW 23:07:25 22° SW visible
23 Jul -2.7 22:16:04 10° W 22:19:05 32° SSW 22:20:34 21° SSE visible
